Time,TemperatureF,DewpointF,PressureIn,WindDirection,WindDirectionDegrees,WindSpeedMPH,WindSpeedGustMPH,Humidity,HourlyPrecipIn,Conditions,Clouds,dailyrainin,SoftwareType,DateUTC
2013-04-10 08:00:00,49.9,45.8,29.94,North,0,0.4,0.4,86,0.00,,,0.00,WUHU216HW,2013-04-10 12:00:00,
2013-04-10 08:05:00,50.0,45.9,29.94,West,273,0.7,1.3,86,0.00,,,0.00,WUHU216HW,2013-04-10 12:05:00,
2013-04-10 08:10:00,50.2,46.1,29.94,ENE,60,0.2,1.3,86,0.00,,,0.00,WUHU216HW,2013-04-10 12:10:00,
2013-04-10 08:15:00,50.4,46.3,29.94,NE,45,0.2,1.1,86,0.00,,,0.00,WUHU216HW,2013-04-10 12:15:00,
2013-04-10 08:20:00,50.8,46.4,29.94,SSW,205,0.8,1.1,85,0.00,,,0.00,WUHU216HW,2013-04-10 12:20:00,
2013-04-10 08:25:00,50.8,46.1,29.95,ESE,110,0.9,1.8,84,0.00,,,0.00,WUHU216HW,2013-04-10 12:25:00,
2013-04-10 08:30:00,50.9,46.3,29.94,SW,225,0.9,1.8,84,0.00,,,0.00,WUHU216HW,2013-04-10 12:30:00,
2013-04-10 08:35:00,51.1,46.5,29.94,ESE,117,0.5,1.6,84,0.00,,,0.00,WUHU216HW,2013-04-10 12:35:00,
2013-04-10 08:40:00,51.1,46.5,29.94,SE,135,0.0,1.6,84,0.00,,,0.00,WUHU216HW,2013-04-10 12:40:00,
2013-04-10 08:45:00,51.5,46.8,29.94,ESE,113,1.1,1.1,84,0.00,,,0.00,WUHU216HW,2013-04-10 12:45:00,
2013-04-10 08:50:00,51.8,47.2,29.94,NNE,23,1.6,1.6,84,0.00,,,0.00,WUHU216HW,2013-04-10 12:50:00,
2013-04-10 08:55:00,52.0,47.4,29.94,East,90,0.7,1.6,84,0.00,,,0.00,WUHU216HW,2013-04-10 12:55:00,
2013-04-10 09:00:00,52.2,47.2,29.94,ENE,68,0.8,1.8,83,0.00,,,0.00,WUHU216HW,2013-04-10 13:00:00,
2013-04-10 09:05:00,52.0,46.7,29.94,East,90,0.6,1.8,82,0.00,,,0.00,WUHU216HW,2013-04-10 13:05:00,
2013-04-10 09:10:00,52.4,47.1,29.94,SSE,158,0.2,1.8,82,0.00,,,0.00,WUHU216HW,2013-04-10 13:10:00,
2013-04-10 09:15:00,52.6,47.3,29.95,East,90,0.9,1.6,82,0.00,,,0.00,WUHU216HW,2013-04-10 13:15:00,
2013-04-10 09:20:00,53.3,48.2,29.95,ENE,68,1.6,2.2,83,0.00,,,0.00,WUHU216HW,2013-04-10 13:20:00,
2013-04-10 09:25:00,54.0,49.0,29.95,East,90,1.6,2.2,83,0.00,,,0.00,WUHU216HW,2013-04-10 13:25:00,
2013-04-10 09:30:00,54.4,49.0,29.95,ESE,104,0.6,2.2,82,0.00,,,0.00,WUHU216HW,2013-04-10 13:30:00,
2013-04-10 09:35:00,55.1,49.7,29.95,SW,225,0.6,1.8,82,0.00,,,0.00,WUHU216HW,2013-04-10 13:35:00,
2013-04-10 09:40:00,55.1,49.0,29.94,East,96,0.9,2.0,80,0.00,,,0.00,WUHU216HW,2013-04-10 13:40:00,
2013-04-10 09:45:00,55.3,49.5,29.94,East,95,1.1,2.0,81,0.00,,,0.00,WUHU216HW,2013-04-10 13:45:00,
2013-04-10 09:50:00,55.3,49.5,29.94,ESE,113,1.1,1.8,81,0.00,,,0.00,WUHU216HW,2013-04-10 13:50:00,
2013-04-10 09:55:00,55.4,49.3,29.94,East,90,1.6,1.8,80,0.00,,,0.00,WUHU216HW,2013-04-10 13:55:00,
2013-04-10 10:00:00,55.8,50.1,29.94,ENE,68,1.6,1.8,81,0.00,,,0.00,WUHU216HW,2013-04-10 14:00:00,
2013-04-10 10:05:00,56.5,50.8,29.95,SW,225,1.3,1.8,81,0.00,,,0.00,WUHU216HW,2013-04-10 14:05:00,
2013-04-10 10:10:00,57.1,51.3,29.95,East,90,1.1,2.0,81,0.00,,,0.00,WUHU216HW,2013-04-10 14:10:00,
2013-04-10 10:15:00,57.2,51.1,29.94,SSW,203,0.7,2.0,80,0.00,,,0.00,WUHU216HW,2013-04-10 14:15:00,
2013-04-10 10:20:00,57.8,51.7,29.94,SSE,163,0.4,1.8,80,0.00,,,0.00,WUHU216HW,2013-04-10 14:20:00,
2013-04-10 10:25:00,58.0,51.1,29.95,East,90,1.0,2.2,78,0.00,,,0.00,WUHU216HW,2013-04-10 14:25:00,
2013-04-10 10:30:00,58.1,51.3,29.95,SSW,203,2.2,2.7,78,0.00,,,0.00,WUHU216HW,2013-04-10 14:30:00,
2013-04-10 10:35:00,58.9,52.4,29.95,SW,233,0.7,4.0,79,0.00,,,0.00,WUHU216HW,2013-04-10 14:35:00,
2013-04-10 10:40:00,59.4,52.2,29.95,West,270,1.1,4.0,77,0.00,,,0.00,WUHU216HW,2013-04-10 14:40:00,
2013-04-10 10:45:00,59.6,52.0,29.95,WSW,245,1.5,2.5,76,0.00,,,0.00,WUHU216HW,2013-04-10 14:45:00,
2013-04-10 10:50:00,60.1,51.5,29.95,NE,46,2.1,3.6,73,0.00,,,0.00,WUHU216HW,2013-04-10 14:50:00,
2013-04-10 10:55:00,60.5,52.2,29.94,SSW,203,2.5,3.6,74,0.00,,,0.00,WUHU216HW,2013-04-10 14:55:00,
2013-04-10 11:00:00,61.2,52.9,29.95,West,268,0.9,2.5,74,0.00,,,0.00,WUHU216HW,2013-04-10 15:00:00,
2013-04-10 11:05:00,61.4,51.9,29.95,NNE,23,0.9,2.5,71,0.00,,,0.00,WUHU216HW,2013-04-10 15:05:00,
2013-04-10 11:10:00,61.4,51.2,29.95,NE,36,1.9,2.9,69,0.00,,,0.00,WUHU216HW,2013-04-10 15:10:00,
2013-04-10 11:15:00,61.0,50.9,29.96,South,175,0.6,2.9,69,0.00,,,0.00,WUHU216HW,2013-04-10 15:15:00,
2013-04-10 11:20:00,61.2,51.5,29.96,North,0,1.0,3.4,70,0.00,,,0.00,WUHU216HW,2013-04-10 15:20:00,
2013-04-10 11:25:00,61.4,51.6,29.96,North,0,0.4,3.4,70,0.00,,,0.00,WUHU216HW,2013-04-10 15:25:00,
2013-04-10 11:30:00,61.4,51.2,29.96,SSE,154,1.0,2.2,69,0.00,,,0.00,WUHU216HW,2013-04-10 15:30:00,
2013-04-10 11:35:00,61.4,51.2,29.95,ENE,57,1.6,2.5,69,0.00,,,0.00,WUHU216HW,2013-04-10 15:35:00,
2013-04-10 11:40:00,61.2,51.0,29.96,East,81,1.9,2.5,69,0.00,,,0.00,WUHU216HW,2013-04-10 15:40:00,
2013-04-10 11:45:00,61.0,50.9,29.95,North,10,0.8,2.5,69,0.00,,,0.00,WUHU216HW,2013-04-10 15:45:00,
2013-04-10 11:50:00,61.6,51.4,29.95,WSW,258,1.6,2.5,69,0.00,,,0.00,WUHU216HW,2013-04-10 15:50:00,
2013-04-10 11:55:00,62.3,52.0,29.95,NE,52,1.3,3.4,69,0.00,,,0.00,WUHU216HW,2013-04-10 15:55:00,
2013-04-10 12:00:00,62.3,52.0,29.95,NNW,338,1.1,4.3,69,0.00,,,0.00,WUHU216HW,2013-04-10 16:00:00,
2013-04-10 12:05:00,62.1,51.4,29.95,NE,47,0.7,4.3,68,0.00,,,0.00,WUHU216HW,2013-04-10 16:05:00,
2013-04-10 12:10:00,62.1,51.4,29.95,North,0,1.1,2.5,68,0.00,,,0.00,WUHU216HW,2013-04-10 16:10:00,
2013-04-10 12:15:00,62.1,51.4,29.95,SSW,203,1.1,2.2,68,0.00,,,0.00,WUHU216HW,2013-04-10 16:15:00,
2013-04-10 12:20:00,62.3,51.6,29.96,NNW,336,0.7,1.3,68,0.00,,,0.00,WUHU216HW,2013-04-10 16:20:00,
2013-04-10 12:25:00,62.3,50.8,29.96,ESE,113,2.0,3.6,66,0.00,,,0.00,WUHU216HW,2013-04-10 16:25:00,
2013-04-10 12:30:00,62.3,51.6,29.96,WNW,293,1.6,3.6,68,0.00,,,0.00,WUHU216HW,2013-04-10 16:30:00,
2013-04-10 12:35:00,62.3,51.6,29.96,NNE,23,1.1,3.6,68,0.00,,,0.00,WUHU216HW,2013-04-10 16:35:00,
2013-04-10 12:40:00,62.3,51.6,29.96,WSW,248,0.7,1.3,68,0.00,,,0.00,WUHU216HW,2013-04-10 16:40:00,
2013-04-10 12:45:00,62.6,51.9,29.96,WSW,253,0.6,1.3,68,0.00,,,0.00,WUHU216HW,2013-04-10 16:45:00,
2013-04-10 12:50:00,63.0,52.3,29.96,WSW,248,1.8,1.8,68,0.00,,,0.00,WUHU216HW,2013-04-10 16:50:00,
2013-04-10 12:55:00,63.0,52.3,29.95,WSW,248,0.8,2.0,68,0.00,,,0.00,WUHU216HW,2013-04-10 16:55:00,
2013-04-10 13:00:00,63.4,51.8,29.95,North,0,0.7,2.0,66,0.00,,,0.00,WUHU216HW,2013-04-10 17:00:00,
2013-04-10 13:05:00,63.4,51.8,29.96,East,90,1.8,2.0,66,0.00,,,0.00,WUHU216HW,2013-04-10 17:05:00,
2013-04-10 13:10:00,63.0,51.4,29.96,SW,219,0.8,2.0,66,0.00,,,0.00,WUHU216HW,2013-04-10 17:10:00,
2013-04-10 13:15:00,63.0,51.8,29.96,WSW,248,0.4,1.8,67,0.00,,,0.00,WUHU216HW,2013-04-10 17:15:00,
2013-04-10 13:20:00,63.0,51.8,29.96,SSW,203,1.1,1.1,67,0.00,,,0.00,WUHU216HW,2013-04-10 17:20:00,
2013-04-10 13:25:00,63.2,51.2,29.95,SE,135,1.1,1.6,65,0.00,,,0.00,WUHU216HW,2013-04-10 17:25:00,
2013-04-10 13:30:00,63.4,51.8,29.95,NNW,342,0.5,1.6,66,0.00,,,0.00,WUHU216HW,2013-04-10 17:30:00,
2013-04-10 13:34:00,63.5,51.9,29.95,SW,225,0.2,1.6,66,0.00,,,0.00,WUHU216HW,2013-04-10 17:34:00,
2013-04-10 15:50:00,63.5,51.9,29.95,SW,225,0.0,0.0,66,0.00,,,0.00,WUHU216HW,2013-04-10 19:50:00,
2013-04-10 15:55:00,63.5,51.9,29.95,SW,225,0.0,0.0,66,0.00,,,0.00,WUHU216HW,2013-04-10 19:55:00,
2013-04-10 16:00:00,61.9,50.9,29.89,ESE,113,0.0,0.0,67,0.00,,,0.00,WUHU216HW,2013-04-10 20:00:00,
2013-04-10 16:05:00,62.3,50.8,29.88,ENE,68,0.7,0.7,66,0.00,,,0.00,WUHU216HW,2013-04-10 20:05:00,
2013-04-10 16:10:00,62.6,51.1,29.88,SW,225,0.4,1.1,66,0.00,,,0.00,WUHU216HW,2013-04-10 20:10:00,
2013-04-10 16:15:00,63.0,51.4,29.88,SW,225,0.9,1.6,66,0.00,,,0.00,WUHU216HW,2013-04-10 20:15:00,
2013-04-10 16:20:00,63.2,51.6,29.88,East,90,1.1,1.6,66,0.00,,,0.00,WUHU216HW,2013-04-10 20:20:00,
2013-04-10 16:25:00,63.5,51.9,29.88,SW,225,1.3,1.8,66,0.00,,,0.00,WUHU216HW,2013-04-10 20:25:00,
2013-04-10 16:30:00,63.7,52.1,29.87,ENE,76,1.0,1.8,66,0.00,,,0.00,WUHU216HW,2013-04-10 20:30:00,
2013-04-10 16:36:00,63.7,51.7,29.87,SSW,203,0.9,1.6,65,0.00,,,0.00,WUHU216HW,2013-04-10 20:36:00,
2013-04-10 16:41:00,63.9,51.8,29.87,South,190,1.2,2.5,65,0.00,,,0.00,WUHU216HW,2013-04-10 20:41:00,
2013-04-10 16:46:00,63.9,52.3,29.87,East,94,1.3,2.5,66,0.00,,,0.00,WUHU216HW,2013-04-10 20:46:00,
2013-04-10 16:51:00,64.1,52.5,29.87,West,270,1.1,1.8,66,0.00,,,0.00,WUHU216HW,2013-04-10 20:51:00,
2013-04-10 16:56:00,64.4,52.4,29.87,East,91,1.2,2.5,65,0.00,,,0.00,WUHU216HW,2013-04-10 20:56:00,
2013-04-10 17:00:00,64.4,52.4,29.87,East,97,1.3,2.5,65,0.00,,,0.00,WUHU216HW,2013-04-10 21:00:00,
2013-04-10 17:06:00,64.4,52.4,29.87,NNE,32,0.5,2.0,65,0.00,,,0.00,WUHU216HW,2013-04-10 21:06:00,
2013-04-10 17:11:00,64.4,52.4,29.87,SW,225,0.7,1.3,65,0.00,,,0.00,WUHU216HW,2013-04-10 21:11:00,
2013-04-10 17:16:00,64.8,52.8,29.87,ESE,113,0.7,1.1,65,0.00,,,0.00,WUHU216HW,2013-04-10 21:16:00,
2013-04-10 17:21:00,65.0,52.9,29.86,East,94,0.9,1.1,65,0.00,,,0.00,WUHU216HW,2013-04-10 21:21:00,
2013-04-10 17:26:00,65.2,53.1,29.86,SSW,203,1.6,2.5,65,0.00,,,0.00,WUHU216HW,2013-04-10 21:26:00,
2013-04-10 17:31:00,65.3,53.3,29.86,East,90,0.9,2.5,65,0.00,,,0.00,WUHU216HW,2013-04-10 21:31:00,
2013-04-10 17:36:00,65.3,52.8,29.85,East,91,1.3,2.5,64,0.00,,,0.00,WUHU216HW,2013-04-10 21:36:00,
2013-04-10 17:41:00,65.3,52.8,29.85,SSW,203,1.1,2.2,64,0.00,,,0.00,WUHU216HW,2013-04-10 21:41:00,
2013-04-10 17:46:00,65.3,52.8,29.85,SSW,193,0.5,1.8,64,0.00,,,0.00,WUHU216HW,2013-04-10 21:46:00,
2013-04-10 17:51:00,65.2,52.7,29.84,SSE,158,0.4,1.8,64,0.00,,,0.00,WUHU216HW,2013-04-10 21:51:00,
2013-04-10 17:56:00,65.0,52.5,29.85,SW,225,1.6,1.8,64,0.00,,,0.00,WUHU216HW,2013-04-10 21:56:00,
2013-04-10 18:01:00,64.6,52.1,29.85,SW,225,0.9,1.8,64,0.00,,,0.00,WUHU216HW,2013-04-10 22:01:00,
2013-04-10 18:06:00,64.6,52.6,29.85,SW,225,0.0,1.6,65,0.00,,,0.00,WUHU216HW,2013-04-10 22:06:00,
2013-04-10 18:11:00,64.6,52.6,29.85,ESE,113,0.5,0.9,65,0.00,,,0.00,WUHU216HW,2013-04-10 22:11:00,
2013-04-10 18:16:00,64.4,52.4,29.85,South,180,0.9,1.1,65,0.00,,,0.00,WUHU216HW,2013-04-10 22:16:00,
2013-04-10 18:21:00,64.3,52.2,29.85,SSW,203,0.9,1.8,65,0.00,,,0.00,WUHU216HW,2013-04-10 22:21:00,
2013-04-10 18:26:00,64.1,52.0,29.85,SSE,158,1.6,1.8,65,0.00,,,0.00,WUHU216HW,2013-04-10 22:26:00,
2013-04-10 18:31:00,63.7,52.1,29.86,WSW,248,0.7,1.8,66,0.00,,,0.00,WUHU216HW,2013-04-10 22:31:00,
2013-04-10 18:36:00,63.4,51.8,29.85,SW,233,1.1,2.7,66,0.00,,,0.00,WUHU216HW,2013-04-10 22:36:00,
2013-04-10 18:41:00,63.0,51.4,29.85,SE,135,2.7,2.7,66,0.00,,,0.00,WUHU216HW,2013-04-10 22:41:00,
2013-04-10 18:46:00,62.6,51.1,29.84,South,180,0.4,2.7,66,0.00,,,0.00,WUHU216HW,2013-04-10 22:46:00,
2013-04-10 18:51:00,62.3,51.2,29.84,SSW,203,6.3,6.3,67,0.00,,,0.00,WUHU216HW,2013-04-10 22:51:00,
2013-04-10 18:56:00,61.7,50.7,29.85,SSW,201,3.1,6.3,67,0.00,,,0.00,WUHU216HW,2013-04-10 22:56:00,
2013-04-10 19:02:00,61.2,50.2,29.85,SSW,205,1.6,6.0,67,0.00,,,0.00,WUHU216HW,2013-04-10 23:02:00,
2013-04-10 19:07:00,61.0,50.0,29.84,SSW,209,1.6,4.0,67,0.00,,,0.00,WUHU216HW,2013-04-10 23:07:00,
2013-04-10 19:12:00,60.8,49.9,29.85,NNW,338,0.4,2.5,67,0.00,,,0.00,WUHU216HW,2013-04-10 23:12:00,
2013-04-10 19:17:00,60.5,49.5,29.86,SW,225,0.9,2.0,67,0.00,,,0.00,WUHU216HW,2013-04-10 23:17:00,
2013-04-10 19:22:00,60.3,50.1,29.96,NNW,336,1.0,2.9,69,0.00,,,0.00,WUHU216HW,2013-04-10 23:22:00,
2013-04-10 19:27:00,59.8,50.4,29.92,SSW,203,2.5,5.1,71,0.00,,,0.00,WUHU216HW,2013-04-10 23:27:00,
2013-04-10 19:32:00,59.2,50.2,29.90,SSW,199,2.5,5.1,72,0.00,,,0.00,WUHU216HW,2013-04-10 23:32:00,
2013-04-10 19:37:00,58.9,50.2,29.89,SSW,198,0.8,4.0,73,0.00,,,0.00,WUHU216HW,2013-04-10 23:37:00,
2013-04-10 19:42:00,58.7,50.4,29.89,SSW,196,0.9,2.2,74,0.00,,,0.00,WUHU216HW,2013-04-10 23:42:00,
2013-04-10 19:47:00,58.3,50.4,29.88,South,180,0.7,1.8,75,0.00,,,0.00,WUHU216HW,2013-04-10 23:47:00,
2013-04-10 19:52:00,58.0,50.4,29.88,SSW,192,0.5,1.8,76,0.00,,,0.00,WUHU216HW,2013-04-10 23:52:00,
2013-04-10 19:57:00,57.6,50.4,29.88,South,189,1.2,2.2,77,0.00,,,0.00,WUHU216HW,2013-04-10 23:57:00,
2013-04-10 20:02:00,57.4,50.2,29.87,SSW,198,0.6,2.2,77,0.00,,,0.00,WUHU216HW,2013-04-11 00:02:00,
2013-04-10 20:07:00,57.2,50.4,29.86,SSW,211,0.6,1.8,78,0.00,,,0.00,WUHU216HW,2013-04-11 00:07:00,
2013-04-10 20:12:00,56.9,50.4,29.86,SSW,203,0.4,1.8,79,0.00,,,0.00,WUHU216HW,2013-04-11 00:12:00,
2013-04-10 20:17:00,56.7,50.2,29.86,ESE,121,0.7,1.8,79,0.00,,,0.00,WUHU216HW,2013-04-11 00:17:00,
2013-04-10 20:22:00,56.5,50.0,29.85,ENE,68,0.6,1.8,79,0.00,,,0.00,WUHU216HW,2013-04-11 00:22:00,
2013-04-10 20:27:00,56.3,49.9,29.86,North,0,0.5,1.1,79,0.00,,,0.00,WUHU216HW,2013-04-11 00:27:00,
2013-04-10 20:32:00,56.2,50.0,29.87,SW,225,1.3,1.8,80,0.00,,,0.00,WUHU216HW,2013-04-11 00:32:00,
2013-04-10 20:37:00,56.0,49.9,29.87,SSW,203,0.9,1.8,80,0.00,,,0.00,WUHU216HW,2013-04-11 00:37:00,
2013-04-10 20:42:00,55.8,49.7,29.87,SSW,203,1.1,1.8,80,0.00,,,0.00,WUHU216HW,2013-04-11 00:42:00,
2013-04-10 20:47:00,55.8,50.1,29.86,SSW,203,0.4,1.6,81,0.00,,,0.00,WUHU216HW,2013-04-11 00:47:00,
2013-04-10 20:52:00,55.6,49.9,29.86,SE,135,0.3,0.4,81,0.00,,,0.00,WUHU216HW,2013-04-11 00:52:00,
2013-04-10 20:57:00,55.4,49.3,29.85,ESE,113,0.4,0.4,80,0.00,,,0.00,WUHU216HW,2013-04-11 00:57:00,
2013-04-10 21:02:00,55.3,49.1,29.85,ESE,123,0.5,0.9,80,0.00,,,0.00,WUHU216HW,2013-04-11 01:02:00,
2013-04-10 21:07:00,55.1,49.0,29.84,ESE,113,0.0,0.9,80,0.00,,,0.00,WUHU216HW,2013-04-11 01:07:00,
2013-04-10 21:12:00,54.7,49.0,29.84,East,95,0.5,0.9,81,0.00,,,0.00,WUHU216HW,2013-04-11 01:12:00,
2013-04-10 21:17:00,54.5,48.9,29.84,East,81,0.4,0.9,81,0.00,,,0.00,WUHU216HW,2013-04-11 01:17:00,
2013-04-10 21:22:00,54.4,48.7,29.84,SW,225,0.2,0.9,81,0.00,,,0.00,WUHU216HW,2013-04-11 01:22:00,